| time (UTC) | temp C | wind direction | speed KPH | gust KPH | rain 1hr cm | rain 24hr cm | rain mn cm | humidity % | barometer mb |
| 20260510164604 | 27 | 288 | 0.0 | 4.8 | 0.00 | 0.00 | 0.00 | 64 | 1017.1 |
| 20260510163113 | 26 | 225 | 0.0 | 6.4 | 0.00 | 0.00 | 0.00 | 65 | 1017.2 |
| 20260510161545 | 26 | 250 | 3.2 | 8.0 | 0.00 | 0.00 | 0.00 | 65 | 1017.1 |
| 20260510160041 | 26 | 269 | 0.0 | 4.8 | 0.00 | 0.00 | 0.00 | 71 | 1016.9 |
| 20260510154538 | 26 | 307 | 0.0 | 6.4 | 0.00 | 0.00 | 0.00 | 72 | 1016.8 |
| 20260510153054 | 25 | 5 | 1.6 | 6.4 | 0.00 | 0.00 | 0.00 | 73 | 1016.6 |
| 20260510151536 | 25 | 242 | 0.0 | 11.3 | 0.00 | 0.00 | 0.00 | 74 | 1016.9 |
| 20260510150039 | 25 | 190 | 1.6 | 9.7 | 0.00 | 0.00 | 0.00 | 76 | 1017.2 |
| 20260510144540 | 24 | 244 | 1.6 | 11.3 | 0.00 | 0.00 | 0.00 | 77 | 1016.9 |
| 20260510143035 | 25 | 181 | 0.0 | 4.8 | 0.00 | 0.00 | 0.00 | 78 | 1016.7 |
| 20260510141525 | 23 | 283 | 1.6 | 6.4 | 0.00 | 0.00 | 0.00 | 82 | 1016.7 |
| 20260510140022 | 23 | 322 | 0.0 | 9.7 | 0.00 | 0.00 | 0.00 | 83 | 1016.7 |
| 20260510134519 | 22 | 163 | 1.6 | 8.0 | 0.00 | 0.00 | 0.00 | 88 | 1016.8 |
| 20260510133014 | 20 | 264 | 0.0 | 11.3 | 0.00 | 0.00 | 0.00 | 96 | 1016.7 |
| 20260510131521 | 18 | 234 | 0.0 | 4.8 | 0.00 | 0.00 | 0.00 | 100 | 1016.7 |
| 20260510130005 | 16 | 190 | 0.0 | 0.0 | 0.00 | 0.00 | 0.00 | 100 | 1016.5 |
| 20260510124501 | 15 | 190 | 0.0 | 1.6 | 0.00 | 0.00 | 0.00 | 100 | 1016.6 |
| 20260510123059 | 15 | 190 | 0.0 | 0.0 | 0.00 | 0.00 | 0.00 | 99 | 1016.7 |
| 20260510121555 | 15 | 236 | 0.0 | 0.0 | 0.00 | 0.00 | 0.00 | 99 | 1016.3 |
| 20260510120053 | 15 | 236 | 0.0 | 0.0 | 0.00 | 0.00 | 0.00 | 99 | 1016.2 |
| 20260510114550 | 14 | 236 | 0.0 | 1.6 | 0.00 | 0.00 | 0.00 | 99 | 1015.9 |
| 20260510113047 | 13 | 236 | 0.0 | 0.0 | 0.00 | 0.00 | 0.00 | 99 | 1015.5 |
| 20260510111547 | 13 | 236 | 0.0 | 0.0 | 0.00 | 0.00 | 0.00 | 99 | 1015.1 |
| 20260510110043 | 12 | 236 | 0.0 | 0.0 | 0.00 | 0.00 | 0.00 | 98 | 1015.0 |
| 20260510104548 | 12 | 236 | 0.0 | 0.0 | 0.00 | 0.00 | 0.00 | 98 | 1014.9 |
| 20260510103039 | 12 | 236 | 0.0 | 0.0 | 0.00 | 0.00 | 0.00 | 98 | 1014.6 |
| 20260510101541 | 12 | 236 | 0.0 | 0.0 | 0.00 | 0.00 | 0.00 | 98 | 1014.5 |
| 20260510100101 | 12 | 236 | 0.0 | 0.0 | 0.00 | 0.00 | 0.00 | 98 | 1014.4 |
| 20260510094550 | 13 | 236 | 0.0 | 0.0 | 0.00 | 0.00 | 0.00 | 98 | 1014.1 |
| 20260510093037 | 13 | 236 | 0.0 | 0.0 | 0.00 | 0.00 | 0.00 | 98 | 1014.1 |
| 20260510091531 | 12 | 236 | 0.0 | 0.0 | 0.00 | 0.00 | 0.00 | 98 | 1014.1 |
| 20260510090035 | 12 | 236 | 0.0 | 0.0 | 0.00 | 0.00 | 0.00 | 98 | 1014.0 |
| 20260510084527 | 11 | 236 | 0.0 | 0.0 | 0.00 | 0.00 | 0.00 | 97 | 1013.9 |
| 20260510083030 | 11 | 236 | 0.0 | 0.0 | 0.00 | 0.00 | 0.00 | 97 | 1013.8 |
| 20260510081528 | 11 | 236 | 0.0 | 0.0 | 0.00 | 0.00 | 0.00 | 97 | 1013.8 |
| 20260510080029 | 11 | 236 | 0.0 | 0.0 | 0.00 | 0.00 | 0.00 | 97 | 1013.9 |
| 20260510074525 | 11 | 236 | 0.0 | 0.0 | 0.00 | 0.00 | 0.00 | 97 | 1014.1 |
| 20260510073024 | 11 | 236 | 0.0 | 0.0 | 0.00 | 0.00 | 0.00 | 96 | 1014.1 |
| 20260510071524 | 11 | 236 | 0.0 | 0.0 | 0.00 | 0.00 | 0.00 | 96 | 1014.0 |
| 20260510070029 | 11 | 236 | 0.0 | 0.0 | 0.00 | 0.00 | 0.00 | 96 | 1013.9 |
| 20260510064521 | 11 | 236 | 0.0 | 0.0 | 0.00 | 0.00 | 0.00 | 96 | 1013.7 |
| 20260510063019 | 11 | 236 | 0.0 | 0.0 | 0.00 | 0.00 | 0.00 | 96 | 1013.5 |
| 20260510061516 | 11 | 236 | 0.0 | 0.0 | 0.00 | 0.00 | 0.00 | 95 | 1013.6 |
| 20260510060015 | 11 | 236 | 0.0 | 0.0 | 0.00 | 0.00 | 0.00 | 95 | 1013.5 |
| 20260510054515 | 11 | 236 | 0.0 | 0.0 | 0.00 | 0.00 | 0.00 | 95 | 1013.5 |
| 20260510053012 | 11 | 236 | 0.0 | 1.6 | 0.00 | 0.00 | 0.00 | 95 | 1013.5 |
| 20260510051510 | 11 | 236 | 0.0 | 0.0 | 0.00 | 0.00 | 0.00 | 94 | 1013.4 |
| 20260510050007 | 12 | 236 | 0.0 | 0.0 | 0.00 | 0.00 | 0.00 | 94 | 1013.1 |
| 20260510044506 | 12 | 236 | 0.0 | 0.0 | 0.00 | 0.00 | 0.00 | 93 | 1013.2 |
| 20260510043006 | 12 | 236 | 0.0 | 0.0 | 0.00 | 0.00 | 0.00 | 93 | 1013.1 |
| 20260510041505 | 12 | 236 | 0.0 | 0.0 | 0.00 | 0.00 | 0.00 | 92 | 1013.2 |
| 20260510040009 | 12 | 236 | 0.0 | 0.0 | 0.00 | 0.00 | 0.00 | 91 | 1013.2 |
| 20260510034503 | 13 | 236 | 0.0 | 0.0 | 0.00 | 0.00 | 0.00 | 91 | 1013.4 |
| 20260510033003 | 13 | 236 | 0.0 | 0.0 | 0.00 | 0.00 | 0.00 | 90 | 1013.4 |
| 20260510031502 | 13 | 236 | 0.0 | 0.0 | 0.00 | 0.00 | 0.00 | 88 | 1013.4 |
| 20260510030000 | 13 | 236 | 0.0 | 0.0 | 0.00 | 0.00 | 0.00 | 87 | 1013.4 |
| 20260510024559 | 14 | 236 | 0.0 | 0.0 | 0.00 | 0.00 | 0.00 | 86 | 1013.2 |
| 20260510023058 | 15 | 236 | 0.0 | 0.0 | 0.00 | 0.00 | 0.00 | 85 | 1013.0 |
| 20260510021555 | 15 | 236 | 0.0 | 0.0 | 0.00 | 0.00 | 0.00 | 84 | 1012.6 |
| 20260510020054 | 16 | 236 | 0.0 | 0.0 | 0.00 | 0.00 | 0.00 | 83 | 1012.6 |
| 20260510014553 | 16 | 236 | 0.0 | 0.0 | 0.00 | 0.00 | 0.00 | 80 | 1012.4 |
| 20260510013051 | 17 | 236 | 0.0 | 0.0 | 0.00 | 0.00 | 0.00 | 77 | 1012.1 |
| 20260510011549 | 18 | 236 | 0.0 | 0.0 | 0.00 | 0.00 | 0.00 | 73 | 1012.0 |
| 20260510010048 | 19 | 236 | 0.0 | 0.0 | 0.00 | 0.00 | 0.00 | 70 | 1011.8 |
| 20260510004547 | 20 | 236 | 0.0 | 0.0 | 0.00 | 0.00 | 0.00 | 65 | 1011.6 |
| 20260510003047 | 21 | 236 | 0.0 | 0.0 | 0.00 | 0.00 | 0.00 | 60 | 1011.4 |
| 20260510001548 | 23 | 236 | 0.0 | 0.0 | 0.00 | 0.00 | 0.00 | 57 | 1011.3 |
| 20260509234555 | 25 | 236 | 0.0 | 1.6 | 0.00 | 0.00 | 0.00 | 49 | 1011.1 |
| 20260509233049 | 26 | 229 | 0.0 | 1.6 | 0.00 | 0.00 | 0.00 | 46 | 1011.0 |
| 20260509231546 | 26 | 229 | 0.0 | 1.6 | 0.00 | 0.00 | 0.00 | 44 | 1010.8 |
| 20260509230043 | 27 | 229 | 0.0 | 3.2 | 0.00 | 0.00 | 0.00 | 36 | 1010.8 |
| 20260509224542 | 28 | 229 | 0.0 | 4.8 | 0.00 | 0.00 | 0.00 | 37 | 1010.8 |
| 20260509223043 | 27 | 241 | 0.0 | 6.4 | 0.00 | 0.00 | 0.00 | 36 | 1010.8 |
| 20260509221543 | 27 | 262 | 0.0 | 6.4 | 0.00 | 0.00 | 0.00 | 37 | 1010.8 |
| 20260509220037 | 28 | 221 | 0.0 | 4.8 | 0.00 | 0.00 | 0.00 | 36 | 1010.8 |
| 20260509214538 | 27 | 269 | 0.0 | 4.8 | 0.00 | 0.00 | 0.00 | 38 | 1010.9 |
| 20260509213039 | 28 | 234 | 0.0 | 6.4 | 0.00 | 0.00 | 0.00 | 40 | 1010.9 |
| 20260509211534 | 28 | 224 | 0.0 | 3.2 | 0.00 | 0.00 | 0.00 | 41 | 1010.8 |
| 20260509210040 | 27 | 311 | 0.0 | 3.2 | 0.00 | 0.00 | 0.00 | 45 | 1010.7 |
| 20260509204538 | 28 | 324 | 0.0 | 3.2 | 0.00 | 0.00 | 0.00 | 41 | 1010.9 |
| 20260509203029 | 27 | 287 | 0.0 | 4.8 | 0.00 | 0.00 | 0.00 | 41 | 1010.9 |
| 20260509201530 | 27 | 153 | 0.0 | 6.4 | 0.00 | 0.00 | 0.00 | 42 | 1010.8 |
| 20260509200027 | 27 | 323 | 1.6 | 4.8 | 0.00 | 0.00 | 0.00 | 46 | 1011.0 |
| 20260509194527 | 27 | 185 | 1.6 | 4.8 | 0.00 | 0.00 | 0.00 | 45 | 1011.1 |
| 20260509193027 | 27 | 275 | 1.6 | 11.3 | 0.00 | 0.00 | 0.00 | 47 | 1011.2 |
| 20260509191527 | 26 | 277 | 1.6 | 11.3 | 0.00 | 0.00 | 0.00 | 46 | 1011.2 |
| 20260509190021 | 26 | 273 | 0.0 | 6.4 | 0.00 | 0.00 | 0.00 | 49 | 1011.3 |
| 20260509184534 | 26 | 247 | 0.0 | 4.8 | 0.00 | 0.00 | 0.00 | 54 | 1011.4 |
| 20260509183017 | 26 | 257 | 0.0 | 3.2 | 0.00 | 0.00 | 0.00 | 54 | 1011.6 |
| 20260509181514 | 25 | 259 | 1.6 | 9.7 | 0.00 | 0.00 | 0.00 | 51 | 1011.5 |
| 20260509180014 | 25 | 245 | 1.6 | 6.4 | 0.00 | 0.00 | 0.00 | 52 | 1011.7 |
| 20260509174510 | 25 | 91 | 1.6 | 8.0 | 0.00 | 0.00 | 0.00 | 56 | 1011.7 |
| 20260509173007 | 25 | 272 | 1.6 | 6.4 | 0.00 | 0.00 | 0.00 | 55 | 1011.7 |
| 20260509171504 | 25 | 319 | 1.6 | 6.4 | 0.00 | 0.00 | 0.00 | 60 | 1011.7 |
| 20260509170002 | 24 | 327 | 0.0 | 6.4 | 0.00 | 0.00 | 0.00 | 60 | 1011.7 |